This is the latest recevied weather packets stored in our database for station/object AF9W-5. If no packets are shown the sender has not sent any weather packets the latest 10 day(s).
| Time | Temp. | Humidity | Pressure | Rain* | Wind** | Luminosity | Snow |
|---|---|---|---|---|---|---|---|
| 1777689545 | 23.33° C | 26% | 1011.2 hPa | 0 mm | - | 0 W/m² | - |
| 1777689242 | 23.89° C | 25% | 1011.2 hPa | 0 mm | - | 0 W/m² | - |
| 1777688940 | 23.89° C | 25% | 1011 hPa | 0 mm | - | 0 W/m² | - |
| 1777688636 | 23.89° C | 25% | 1011.1 hPa | 0 mm | - | 0 W/m² | - |
| 1777688333 | 24.44° C | 25% | 1010.9 hPa | 0 mm | - | 0 W/m² | - |
| 1777688030 | 24.44° C | 25% | 1010.6 hPa | 0 mm | - | 1 W/m² | - |
| 1777687727 | 24.44° C | 25% | 1010.9 hPa | 0 mm | - | 2 W/m² | - |
| 1777687425 | 24.44° C | 25% | 1010.8 hPa | 0 mm | - | 4 W/m² | - |
| 1777687122 | 25° C | 24% | 1010.8 hPa | 0 mm | - | 7 W/m² | - |
| 1777686819 | 25° C | 24% | 1010.7 hPa | 0 mm | - | 10 W/m² | - |
| 1777686516 | 25° C | 24% | 1010.7 hPa | 0 mm | - | 13 W/m² | - |
| 1777686213 | 25° C | 23% | 1010.4 hPa | 0 mm | - | 17 W/m² | - |
| 1777685909 | 25.56° C | 23% | 1010.3 hPa | 0 mm | - | 20 W/m² | - |
| 1777685605 | 25.56° C | 23% | 1010.4 hPa | 0 mm | - | 23 W/m² | - |
| 1777685301 | 26.11° C | 23% | 1010.7 hPa | 0 mm | - | 27 W/m² | - |
| 1777685000 | 26.67° C | 22% | 1010.6 hPa | 0 mm | - | 30 W/m² | - |
| 1777684696 | 26.67° C | 22% | 1010.4 hPa | 0 mm | - | 33 W/m² | - |
| 1777684392 | 26.67° C | 22% | 1010.6 hPa | 0 mm | - | 41 W/m² | - |
| 1777684090 | 26.67° C | 22% | 1010.4 hPa | 0 mm | - | 44 W/m² | - |
| 1777683786 | 26.67° C | 23% | 1010.4 hPa | 0 mm | - | 39 W/m² | - |
| 1777683483 | 26.67° C | 23% | 1010.3 hPa | 0 mm | - | 44 W/m² | - |
| 1777683181 | 26.67° C | 23% | 1010.3 hPa | 0 mm | - | 44 W/m² | - |
| 1777682878 | 26.67° C | 23% | 1010.3 hPa | 0 mm | - | 63 W/m² | - |
| 1777682574 | 26.67° C | 23% | 1010.2 hPa | 0 mm | - | 41 W/m² | - |
| 1777682272 | 26.67° C | 23% | 1010.1 hPa | 0 mm | - | 42 W/m² | - |
* Rain latest hour (hover to see other rain measurements)
** Current wind speed in m/s (hover to see current wind gust speed)